KD9NSC Weather Reports


time (UTC)temp
F
wind
direction
speed
knots
gust
knots
rain 1hr
in
rain 24hr
in
rain mn
in
humidity
%
barometer
mb
20260509112425 50 5 0.0 0.0 0.00 0.00 0.00 96 1006.2
20260509111921 50 10 0.0 0.0 0.00 0.00 0.00 96 1006.1
20260509111419 50 10 0.0 0.0 0.00 0.00 0.00 96 1006.1
20260509110916 50 13 0.0 0.0 0.00 0.00 0.00 96 1006.2
20260509110412 50 13 0.0 0.0 0.00 0.00 0.00 96 1006.0
20260509105910 50 13 0.0 0.0 0.00 0.00 0.00 96 1006.0
20260509105408 50 13 0.0 0.0 0.00 0.00 0.00 96 1006.2
20260509104859 50 15 0.0 0.0 0.00 0.00 0.00 96 1006.3
20260509104356 50 15 0.0 0.0 0.00 0.00 0.00 96 1006.1
20260509103854 50 14 0.0 0.0 0.00 0.00 0.00 96 1006.2
20260509103350 50 15 0.0 0.0 0.00 0.00 0.00 96 1006.1
20260509102849 50 10 0.0 0.0 0.00 0.00 0.00 96 1006.2
20260509102346 50 10 0.0 0.0 0.00 0.00 0.00 96 1006.4
20260509101842 50 6 0.0 0.0 0.00 0.00 0.00 96 1006.3
20260509101338 50 6 0.0 0.0 0.00 0.00 0.00 96 1006.2
20260509100836 50 5 0.0 0.0 0.00 0.00 0.00 96 1006.3
20260509100333 50 5 0.0 0.0 0.00 0.00 0.00 96 1006.3
20260509095830 50 5 0.0 0.0 0.00 0.00 0.00 96 1006.3
20260509095327 50 5 0.0 0.0 0.00 0.00 0.00 96 1006.6
20260509094824 50 5 0.0 0.0 0.00 0.00 0.00 96 1006.6
20260509094321 50 5 0.0 0.0 0.00 0.00 0.00 96 1006.6
20260509093818 49 4 0.0 0.0 0.00 0.00 0.00 96 1006.7
20260509093315 49 4 0.0 0.0 0.00 0.00 0.00 96 1006.7
20260509092814 49 4 0.0 0.0 0.00 0.00 0.00 96 1006.8
20260509092311 49 8 0.0 0.0 0.00 0.00 0.00 96 1006.9
20260509091809 49 8 0.0 0.0 0.00 0.00 0.00 96 1006.8
20260509091306 49 8 0.0 0.0 0.00 0.00 0.00 96 1006.6
20260509090803 49 11 0.0 0.0 0.00 0.00 0.00 96 1006.8
20260509090300 49 11 0.0 0.0 0.00 0.00 0.00 96 1006.7
20260509085757 49 9 0.0 0.0 0.00 0.00 0.00 96 1006.6
20260509085255 49 9 0.0 0.0 0.00 0.00 0.00 96 1006.6
20260509084751 49 9 0.0 0.0 0.00 0.00 0.00 96 1006.5
20260509084248 49 9 0.0 0.9 0.00 0.00 0.00 96 1006.5
20260509083746 49 344 0.0 0.0 0.00 0.00 0.00 96 1006.5
20260509083242 49 344 0.0 0.0 0.00 0.00 0.00 95 1006.9
20260509082739 48 344 0.0 0.0 0.00 0.00 0.00 95 1006.7
20260509082236 48 344 0.0 0.0 0.00 0.00 0.00 95 1006.8
20260509081732 48 344 0.0 0.0 0.00 0.00 0.00 95 1006.9
20260509081230 48 344 0.0 0.0 0.00 0.00 0.00 95 1006.9
20260509080728 48 344 0.0 0.0 0.00 0.00 0.00 95 1006.7
20260509080225 48 344 0.0 0.0 0.00 0.00 0.00 95 1006.9
20260509075724 48 344 0.0 0.0 0.00 0.00 0.00 95 1006.9
20260509075221 49 344 0.0 0.0 0.00 0.00 0.00 95 1007.0
20260509074718 49 344 0.0 0.0 0.00 0.00 0.00 95 1007.0
20260509074215 49 344 0.0 0.0 0.00 0.00 0.00 95 1007.0
20260509073711 49 344 0.0 0.0 0.00 0.00 0.00 95 1007.0
20260509073208 49 344 0.0 0.0 0.00 0.00 0.00 95 1006.9
20260509072704 49 344 0.0 0.0 0.00 0.00 0.00 95 1006.9
20260509072201 49 344 0.0 0.0 0.00 0.00 0.00 95 1007.0
20260509071658 49 344 0.0 0.0 0.00 0.00 0.00 94 1006.9
20260509071155 49 344 0.0 0.0 0.00 0.00 0.00 94 1007.1
20260509070652 49 344 0.0 0.0 0.00 0.00 0.00 94 1007.1
20260509070148 49 344 0.0 0.0 0.00 0.00 0.00 94 1007.4
20260509065645 50 344 0.0 0.0 0.00 0.00 0.00 94 1007.3
20260509065141 50 344 0.0 0.0 0.00 0.00 0.00 94 1007.3
20260509064638 50 344 0.0 0.0 0.00 0.00 0.00 94 1007.5
20260509064136 50 344 0.0 0.0 0.00 0.00 0.00 94 1007.4
20260509063632 50 344 0.0 0.0 0.00 0.00 0.00 94 1007.5
20260509063129 50 344 0.0 0.0 0.00 0.00 0.00 94 1007.5
20260509062626 50 344 0.0 0.0 0.00 0.00 0.00 94 1007.8
20260509062123 50 344 0.0 0.0 0.00 0.00 0.00 93 1007.9
20260509061620 50 344 0.0 0.0 0.00 0.00 0.00 93 1007.9
20260509061117 50 344 0.0 0.0 0.00 0.00 0.00 93 1007.8
20260509060615 50 344 0.0 0.0 0.00 0.00 0.00 93 1007.3
20260509060110 50 344 0.0 0.0 0.00 0.00 0.00 93 1007.7
20260509055606 51 344 0.0 0.0 0.00 0.00 0.00 93 1007.8
20260509055102 51 344 0.0 0.0 0.00 0.00 0.00 93 1007.8
20260509054559 51 344 0.0 0.0 0.00 0.00 0.00 92 1007.9
20260509054057 51 344 0.0 0.0 0.00 0.00 0.00 92 1007.8
20260509053555 51 344 0.0 0.0 0.00 0.00 0.00 92 1007.8
20260509053052 51 344 0.0 0.0 0.00 0.00 0.00 92 1007.9
20260509052550 51 344 0.0 0.0 0.00 0.00 0.00 92 1008.1
20260509052048 52 344 0.0 0.0 0.00 0.00 0.00 92 1008.0
20260509051545 52 344 0.0 0.0 0.00 0.00 0.00 91 1008.0
20260509051042 52 344 0.0 0.0 0.00 0.00 0.00 91 1007.8
20260509050539 52 344 0.0 0.0 0.00 0.00 0.00 91 1008.0
20260509050035 52 344 0.0 0.0 0.00 0.00 0.00 91 1008.0
20260509045533 52 344 0.0 0.0 0.00 0.00 0.00 91 1008.1
20260509045029 52 344 0.0 0.0 0.00 0.00 0.00 91 1008.2
20260509044527 52 344 0.0 0.0 0.00 0.00 0.00 90 1008.1
20260509044024 52 344 0.0 0.0 0.00 0.00 0.00 90 1008.1
20260509043521 53 344 0.0 0.0 0.00 0.00 0.00 90 1008.2
20260509043016 53 344 0.0 0.0 0.00 0.00 0.00 89 1008.1
20260509042513 53 344 0.0 0.0 0.00 0.00 0.00 89 1008.1
20260509042009 53 344 0.0 0.0 0.00 0.00 0.00 89 1008.2
20260509041506 53 344 0.0 0.0 0.00 0.00 0.00 89 1008.3
20260509041004 53 344 0.0 0.0 0.00 0.00 0.00 89 1008.2
20260509040501 53 344 0.0 0.0 0.00 0.00 0.00 89 1008.4
20260509035958 53 344 0.0 0.0 0.00 0.00 0.00 89 1008.2
20260509035455 53 344 0.0 0.0 0.00 0.00 0.00 89 1008.3
20260509034951 53 344 0.0 0.0 0.00 0.00 0.00 89 1008.3
20260509034449 53 344 0.0 0.0 0.00 0.00 0.00 89 1008.4
20260509033946 53 344 0.0 0.0 0.00 0.00 0.00 89 1008.4
20260509033443 53 344 0.0 0.0 0.00 0.00 0.00 89 1008.4
20260509032940 53 344 0.0 0.0 0.00 0.00 0.00 89 1008.5
20260509032437 53 344 0.0 0.0 0.00 0.00 0.00 89 1008.3
20260509031935 53 325 0.0 0.0 0.00 0.00 0.00 89 1008.5
20260509031432 54 325 0.0 0.0 0.00 0.00 0.00 89 1008.5
20260509030929 54 325 0.0 0.0 0.00 0.00 0.00 89 1008.5
20260509030427 54 325 0.0 0.0 0.00 0.00 0.00 89 1008.7
20260509025924 54 325 0.0 0.0 0.00 0.00 0.00 89 1008.8
20260509025420 54 325 0.0 0.0 0.00 0.00 0.00 89 1008.7
20260509024915 54 325 0.0 0.0 0.00 0.00 0.00 88 1008.6
20260509024411 54 325 0.0 0.0 0.00 0.00 0.00 88 1008.8
20260509023909 54 325 0.0 0.0 0.00 0.00 0.00 88 1008.7
20260509023406 54 325 0.0 0.0 0.00 0.00 0.00 88 1008.9
20260509022902 54 325 0.0 0.0 0.00 0.00 0.00 88 1008.7
20260509022359 54 325 0.0 0.0 0.00 0.00 0.00 88 1008.8
20260509021856 54 325 0.0 0.0 0.00 0.00 0.00 88 1008.6
20260509021353 54 325 0.0 0.0 0.00 0.00 0.00 88 1008.6
20260509020851 53 325 0.0 0.0 0.00 0.00 0.00 88 1008.6
20260509020349 53 325 0.0 0.0 0.00 0.00 0.00 88 1008.6
20260509015846 53 325 0.0 0.0 0.00 0.00 0.00 87 1008.5
20260509015344 53 325 0.0 0.0 0.00 0.00 0.00 87 1008.5
20260509014840 53 325 0.0 0.0 0.00 0.00 0.00 87 1008.6
20260509014337 53 325 0.0 0.0 0.00 0.00 0.00 86 1008.5
20260509013834 53 325 0.0 0.0 0.00 0.00 0.00 86 1008.6
20260509013331 53 325 0.0 0.0 0.00 0.00 0.00 86 1008.6
20260509012827 53 325 0.0 0.0 0.00 0.00 0.00 85 1008.5
20260509012323 53 325 0.0 0.0 0.00 0.00 0.00 85 1008.4
20260509011821 53 325 0.0 0.0 0.00 0.00 0.00 85 1008.3
20260509011318 54 325 0.0 0.0 0.00 0.00 0.00 84 1008.6
20260509010816 53 325 0.0 0.0 0.00 0.00 0.00 84 1008.3
20260509010313 54 325 0.0 0.0 0.00 0.00 0.00 84 1008.4
20260509005810 54 325 0.0 0.0 0.00 0.00 0.00 83 1008.4
20260509005308 54 325 0.0 0.0 0.00 0.00 0.00 83 1008.3
20260509004802 55 325 0.0 0.0 0.00 0.00 0.00 81 1008.4
20260509004259 55 325 0.0 0.0 0.00 0.00 0.00 81 1008.5
20260509003757 55 325 0.0 0.0 0.00 0.00 0.00 80 1008.4
20260509003254 56 325 0.0 0.0 0.00 0.00 0.00 79 1008.4
20260509002751 56 325 0.0 0.0 0.00 0.00 0.00 79 1008.2
20260509002249 57 325 0.0 0.0 0.00 0.00 0.00 78 1008.3
20260509001746 57 325 0.0 0.0 0.00 0.00 0.00 78 1008.3
20260509001242 57 325 0.0 0.0 0.00 0.00 0.00 79 1008.4
20260509000740 57 325 0.0 0.0 0.00 0.00 0.00 79 1008.3
20260509000237 57 264 0.0 0.0 0.00 0.00 0.00 78 1008.2
20260508235734 57 264 0.0 0.0 0.00 0.00 0.00 77 1008.3
20260508235230 58 264 0.0 0.0 0.00 0.00 0.00 77 1008.3
20260508234728 58 264 0.0 0.0 0.00 0.00 0.00 75 1008.3
20260508234224 58 264 0.0 0.0 0.00 0.00 0.00 74 1008.4
20260508233718 58 264 0.0 0.0 0.00 0.00 0.00 75 1008.3
20260508233215 58 264 0.0 0.0 0.00 0.00 0.00 74 1008.4
20260508232713 58 264 0.0 0.0 0.00 0.00 0.00 73 1008.2
20260508232208 58 264 0.0 0.0 0.00 0.00 0.00 73 1008.2
20260508231707 58 264 0.0 0.0 0.00 0.00 0.00 70 1008.2
20260508231204 58 264 0.0 0.0 0.00 0.00 0.00 73 1008.5
20260508230701 58 264 0.0 0.0 0.00 0.00 0.00 71 1008.4
20260508230156 58 264 0.0 0.0 0.00 0.00 0.00 71 1008.4
20260508225655 58 264 0.0 0.0 0.00 0.00 0.00 70 1008.5
20260508225150 58 264 0.0 0.0 0.00 0.00 0.00 69 1008.5
20260508224649 58 252 0.0 0.0 0.00 0.00 0.00 68 1008.5
20260508224146 58 266 0.0 0.0 0.00 0.00 0.00 70 1008.5
20260508223643 58 266 0.0 0.0 0.00 0.00 0.00 70 1008.8
20260508223141 58 266 0.0 0.9 0.00 0.00 0.00 68 1008.7
20260508222638 58 311 0.0 0.0 0.00 0.00 0.00 69 1008.7
20260508222135 59 312 0.0 0.0 0.00 0.00 0.00 67 1008.6
20260508221631 59 290 0.0 0.0 0.00 0.00 0.00 69 1008.5
20260508221127 59 290 0.0 0.0 0.00 0.00 0.00 68 1008.8
20260508220624 59 315 0.0 0.0 0.00 0.00 0.00 68 1008.6
20260508220120 58 338 0.0 0.0 0.00 0.00 0.00 68 1008.6
20260508215617 58 315 0.0 0.0 0.00 0.00 0.00 67 1008.8
20260508215114 58 339 0.0 0.0 0.00 0.00 0.00 67 1008.7
20260508214611 58 252 0.0 0.0 0.00 0.00 0.00 67 1008.7
20260508214108 59 346 0.0 0.0 0.00 0.00 0.00 67 1008.6
20260508213604 59 346 0.0 0.0 0.00 0.00 0.00 67 1008.8
20260508213101 59 337 0.0 0.0 0.00 0.00 0.00 67 1008.9
20260508212557 59 8 0.0 0.0 0.00 0.00 0.00 68 1008.9
20260508212054 60 234 0.9 0.9 0.00 0.00 0.00 66 1008.9
20260508211549 60 23 0.0 0.0 0.00 0.00 0.00 70 1008.9
20260508211045 60 315 0.0 0.0 0.00 0.00 0.00 70 1009.0
20260508210542 61 241 0.9 1.7 0.00 0.00 0.00 67 1008.9
20260508210040 61 17 0.0 0.0 0.00 0.00 0.00 70 1009.0
20260508205537 60 333 0.0 0.0 0.00 0.00 0.00 69 1009.0
20260508205033 60 339 0.0 0.0 0.00 0.00 0.00 69 1009.2
20260508204530 60 324 0.0 0.0 0.00 0.00 0.00 67 1009.2
20260508204025 60 301 0.0 0.0 0.00 0.00 0.00 70 1009.4
20260508203522 59 294 0.0 0.0 0.00 0.00 0.00 74 1009.6
20260508203018 59 302 0.0 0.0 0.00 0.00 0.00 71 1009.6
20260508202515 59 302 0.0 0.0 0.00 0.00 0.00 72 1009.4
20260508202012 59 302 0.0 0.0 0.00 0.00 0.00 73 1009.6
20260508201509 59 302 0.0 0.0 0.00 0.00 0.00 72 1009.7
20260508201005 60 302 0.0 0.0 0.00 0.00 0.00 70 1009.8
20260508200502 60 302 0.0 0.0 0.00 0.00 0.00 71 1009.9
20260508195956 60 296 0.0 0.0 0.00 0.00 0.00 70 1009.9
20260508195455 60 309 0.0 0.0 0.00 0.00 0.00 71 1010.0
20260508194950 60 315 0.0 0.0 0.00 0.00 0.00 73 1009.9
20260508194448 60 274 0.0 0.0 0.00 0.00 0.00 71 1010.0
20260508193945 60 330 0.0 0.0 0.00 0.00 0.00 73 1010.2
20260508193441 60 335 0.0 0.0 0.00 0.00 0.00 75 1010.1
20260508192938 59 329 0.0 0.0 0.00 0.00 0.00 73 1010.1
20260508192435 59 313 0.0 0.0 0.00 0.00 0.00 74 1010.3
20260508191932 60 343 0.0 0.0 0.00 0.00 0.00 74 1010.1
20260508191429 60 185 0.0 0.0 0.00 0.00 0.00 75 1010.3
20260508190925 60 331 0.0 0.0 0.00 0.00 0.00 75 1010.2
20260508190423 60 308 0.0 0.0 0.00 0.00 0.00 74 1010.4
20260508185919 61 324 0.0 0.0 0.00 0.00 0.00 71 1010.4
20260508185417 62 314 0.0 0.0 0.00 0.00 0.00 72 1010.6
20260508184914 62 112 0.9 1.7 0.00 0.00 0.00 69 1010.5
20260508184411 61 301 0.0 0.0 0.00 0.00 0.00 70 1010.7
20260508183908 61 326 0.0 0.0 0.00 0.00 0.00 73 1010.6
20260508183404 60 324 0.0 0.0 0.00 0.00 0.00 74 1010.6
20260508182859 60 336 0.0 0.9 0.00 0.00 0.00 73 1010.8
20260508182356 59 317 0.0 0.0 0.00 0.00 0.00 76 1011.0
20260508181847 59 312 0.9 0.9 0.00 0.00 0.00 77 1011.1
20260508181343 59 317 0.0 0.0 0.00 0.00 0.00 77 1011.1
20260508180841 59 336 0.0 0.0 0.00 0.00 0.00 76 1011.0
20260508180337 60 323 0.0 0.0 0.00 0.00 0.00 75 1011.1
20260508175833 61 13 0.0 0.9 0.00 0.00 0.00 74 1011.2
20260508175330 61 337 0.0 0.0 0.00 0.00 0.00 72 1011.3
20260508174829 61 336 0.0 0.0 0.00 0.00 0.00 73 1011.5
20260508174326 61 315 0.0 0.0 0.00 0.00 0.00 70 1011.6
20260508173822 62 324 0.0 0.0 0.00 0.00 0.00 72 1011.5
20260508173319 62 326 0.0 0.0 0.00 0.00 0.00 71 1011.7
20260508172815 62 306 0.0 0.0 0.00 0.00 0.00 70 1011.7
20260508172312 63 315 0.0 0.0 0.00 0.00 0.00 69 1011.9
20260508171809 63 355 0.0 0.0 0.00 0.00 0.00 71 1011.7
20260508171305 62 326 0.0 0.0 0.00 0.00 0.00 70 1011.9
20260508170802 62 339 0.0 0.0 0.00 0.00 0.00 72 1011.9
20260508170300 61 323 0.0 0.0 0.00 0.00 0.00 74 1012.2
20260508165756 60 323 0.0 0.0 0.00 0.00 0.00 74 1012.0
20260508165253 60 308 0.0 0.0 0.00 0.00 0.00 75 1012.3
20260508164749 61 323 0.0 0.0 0.00 0.00 0.00 72 1012.2
20260508164246 61 324 0.0 0.0 0.00 0.00 0.00 73 1012.2
20260508163744 61 350 0.0 0.0 0.00 0.00 0.00 73 1012.4
20260508163242 62 350 0.0 0.0 0.00 0.00 0.00 70 1012.4
20260508162737 62 350 0.0 0.0 0.00 0.00 0.00 72 1012.5
20260508162234 60 341 0.0 0.0 0.00 0.00 0.00 76 1012.6
20260508161731 60 324 0.0 0.0 0.00 0.00 0.00 75 1012.6
20260508161228 60 336 0.0 0.0 0.00 0.00 0.00 75 1012.6
20260508160726 60 331 0.0 0.0 0.00 0.00 0.00 75 1012.6
20260508160225 62 319 0.0 0.0 0.00 0.00 0.00 73 1012.7
20260508155721 61 318 0.0 0.0 0.00 0.00 0.00 75 1012.8
20260508155218 61 351 0.0 0.0 0.00 0.00 0.00 76 1012.8
20260508154714 60 356 0.0 0.0 0.00 0.00 0.00 74 1012.7
20260508154212 62 343 0.0 0.0 0.00 0.00 0.00 71 1012.9
20260508153708 62 347 0.0 0.0 0.00 0.00 0.00 71 1012.9
20260508153206 63 328 0.0 0.0 0.00 0.00 0.00 71 1013.2
20260508152702 64 359 0.0 0.0 0.00 0.00 0.00 68 1012.7
20260508152158 65 349 0.0 0.0 0.00 0.00 0.00 66 1013.0
20260508151654 66 13 0.0 0.0 0.00 0.00 0.00 67 1012.8
20260508151151 64 18 0.0 0.0 0.00 0.00 0.00 70 1013.0
20260508150648 64 16 0.0 0.0 0.00 0.00 0.00 71 1013.0
20260508150145 63 8 0.0 0.0 0.00 0.00 0.00 71 1012.9
20260508145641 63 21 0.0 0.0 0.00 0.00 0.00 72 1012.9
20260508145137 63 16 0.0 0.0 0.00 0.00 0.00 72 1013.0
20260508144635 63 14 0.0 0.0 0.00 0.00 0.00 74 1013.0
20260508144132 62 15 0.0 0.0 0.00 0.00 0.00 74 1012.9
20260508143630 61 17 0.0 0.0 0.00 0.00 0.00 78 1013.0
20260508143126 60 11 0.0 0.0 0.00 0.00 0.00 77 1013.0
20260508142623 60 19 0.0 0.0 0.00 0.00 0.00 81 1013.0
20260508142120 58 12 0.0 0.0 0.00 0.00 0.00 83 1013.0
20260508141616 58 356 0.0 0.0 0.00 0.00 0.00 82 1013.0
20260508141114 56 1 0.0 0.0 0.00 0.00 0.00 85 1013.0
20260508140611 57 3 0.0 0.0 0.00 0.00 0.00 84 1013.0
20260508140108 56 11 0.0 0.0 0.00 0.00 0.00 86 1013.0
20260508135603 55 7 0.9 0.9 0.00 0.00 0.00 86 1012.9
20260508135059 55 13 0.0 0.0 0.00 0.00 0.00 87 1013.2
20260508134556 53 5 0.0 0.0 0.00 0.00 0.00 90 1013.2
20260508134053 52 0 0.0 0.0 0.00 0.00 0.00 90 1013.3
20260508133550 52 5 0.0 0.0 0.00 0.00 0.00 90 1013.3
20260508133047 52 4 0.0 0.0 0.00 0.00 0.00 91 1013.0
20260508132545 50 4 0.0 0.0 0.00 0.00 0.00 92 1013.0
20260508132041 50 4 0.0 0.0 0.00 0.00 0.00 92 1013.4
20260508131537 50 4 0.0 0.0 0.00 0.00 0.00 93 1013.6
20260508131034 50 4 0.0 0.0 0.00 0.00 0.00 94 1013.3
20260508130531 50 4 0.0 0.0 0.00 0.00 0.00 95 1013.4
20260508130027 50 0 0.0 0.0 0.00 0.00 0.00 96 1013.5
20260508125523 51 20 0.0 0.0 0.00 0.00 0.00 97 1013.6
20260508125021 49 21 0.0 0.0 0.00 0.00 0.00 98 1013.4
20260508124519 49 11 0.0 0.0 0.00 0.00 0.00 98 1013.4
20260508124015 48 9 0.0 0.0 0.00 0.00 0.00 98 1013.5
20260508123514 47 357 0.0 0.0 0.00 0.00 0.00 98 1013.6
20260508123010 46 357 0.0 0.0 0.00 0.00 0.00 98 1013.5
20260508122507 46 357 0.0 0.0 0.00 0.00 0.00 98 1013.4
20260508121959 46 357 0.0 0.0 0.00 0.00 0.00 98 1013.4
20260508121457 46 357 0.0 0.0 0.00 0.00 0.00 98 1013.4
20260508120954 45 357 0.0 0.0 0.00 0.00 0.00 98 1013.0
20260508120452 45 358 0.0 0.0 0.00 0.00 0.00 98 1013.4
20260508115950 45 358 0.0 0.0 0.00 0.00 0.00 98 1013.2
20260508115447 45 358 0.0 0.0 0.00 0.00 0.00 98 1013.0
20260508114944 44 358 0.0 0.0 0.00 0.00 0.00 98 1013.2
20260508114441 44 358 0.0 0.0 0.00 0.00 0.00 98 1013.0
20260508113937 44 358 0.0 0.0 0.00 0.00 0.00 98 1012.7
20260508113435 44 358 0.0 0.0 0.00 0.00 0.00 98 1012.9
20260508112932 43 358 0.0 0.0 0.00 0.00 0.00 98 1012.9